Theta_e
345 346 343 342 341 334 335 332 334 333 333 334 334 333 332 331 335 333 332 336 338 340
343 343 336 334 334 332 331 332 331 332 332 329 328 326 325 326 328 329 327 328 327 329
341 338 334 333 331 330 330 330 330 329 328 327 325 326 325 324 326 326 325 327 325 325
335 334 331 329 330 329 329 328 325 326 324 323 320 321 320 322 323 321 325 327 327 327
332 329 328 327 327 327 326 326 324 324 320 315 313 315 316 319 321 321 320 324 323 320
328 327 326 325 325 325 323 322 321 319 311 311 311 314 317 319 320 319 318 318 319 316
325 324 324 323 322 321 320 318 314 312 311 306 310 312 314 315 318 317 315 315 317 315
324 323 322 320 317 318 318 318 313 309 307 305 307 314 312 314 314 315 314 314 315 315
323 322 321 318 317 316 316 317 315 311 307 305 309 318 320 319 313 316 314 313 311 312
322 318 317 317 316 315 314 315 314 315 309 305 304 318 320 324 312 315 314 313 310 312
319 317 317 316 315 315 315 314 313 312 313 309 308 316 317 320 310 311 314 312 309 307
318 316 316 315 315 315 314 314 314 314 311 313 309 313 314 312 307 306 314 311 308 307
319 317 316 316 314 315 316 316 315 316 315 316 312 313 312 309 308 304 307 308 306 315
319 317 317 316 317 315 316 315 315 316 315 314 316 312 313 312 307 305 306 307 306 307
Wind_Speed
4 4 3 6 6 6 5 4 6 6 5 7 8 7 6 4 3 5 5 5 5 3
4 7 7 7 7 5 5 5 6 6 8 7 6 6 5 4 5 5 5 5 6 4
6 7 7 6 7 7 6 6 7 6 6 6 6 5 6 5 4 5 4 3 6 4
6 6 7 6 6 6 6 7 6 5 6 6 7 6 7 6 5 6 4 5 5 9
7 7 7 6 7 6 6 5 5 5 7 7 7 7 7 7 5 7 9 9 10 8
7 7 7 7 7 7 7 7 7 7 7 7 7 7 6 6 6 7 7 6 7 5
8 7 7 7 7 7 7 7 7 7 6 7 6 6 5 6 6 7 6 6 6 6
8 8 7 7 7 7 7 7 7 7 7 5 5 4 6 6 5 6 5 5 6 6
8 7 7 7 7 7 5 5 7 6 6 6 3 8 11 9 4 5 5 5 6 4
7 7 7 7 7 6 5 4 5 5 5 4 3 9 11 12 5 3 5 5 5 3
8 7 6 6 6 5 4 5 4 4 4 3 3 9 11 11 6 6 4 6 4 3
8 7 7 6 5 4 4 3 4 4 4 4 0 5 8 6 5 6 4 3 2 2
8 7 7 6 5 3 2 3 2 5 6 6 5 3 4 4 3 5 3 1 4 6
7 7 7 5 3 3 3 1 3 3 4 6 7 6 7 4 1 1 3 2 2 3
Wind_Direction
78 79 76 47 78 75 85 68 49 44 37 28 38 26 3 354 34 27 15 17 7 15
82 92 87 71 73 75 68 70 50 39 55 62 49 40 24 21 23 25 23 42 22 12
124 107 96 84 87 80 73 67 55 66 55 64 41 22 25 8 9 39 15 49 46 18
97 97 96 92 86 91 76 81 70 70 53 60 43 24 20 6 8 23 30 37 46 39
112 100 91 95 87 83 84 89 67 66 62 63 38 21 13 357 8 27 29 54 53 44
123 111 102 100 91 76 79 70 56 59 61 68 44 25 1 1 25 62 49 36 73 43
88 97 97 97 95 89 86 82 68 57 62 62 59 25 1 5 20 77 54 40 60 54
100 100 99 95 93 92 87 103 93 68 47 56 46 20 8 4 25 96 67 38 28 63
112 110 108 106 113 104 93 104 120 105 84 49 24 26 27 21 33 128 107 69 39 63
119 116 119 126 114 115 120 104 91 124 111 89 25 17 18 24 22 149 137 101 71 44
122 127 131 121 129 136 136 144 152 124 132 116 27 21 14 27 32 29 98 104 113 107
133 140 142 148 162 180 167 196 184 172 166 141 116 16 9 25 23 37 83 129 201 185
140 149 156 152 157 204 209 229 198 192 203 193 181 222 315 14 16 24 24 209 274 284
142 152 154 166 188 204 247 266 268 258 255 195 186 208 231 270 353 19 346 18 293 308